W4SNA-2 Weather Reports


time (UTC)temp
C
wind
direction
speed
KPH
gust
KPH
rain 1hr
cm
rain 24hr
cm
rain mn
cm
humidity
%
barometer
mb
20260904163742 32 0 0.0 6.4 0.00 0.00 0.00 61 1021.1
20260904163241 32 0 0.0 6.4 0.00 0.00 0.00 61 1021.2
20260904162741 32 0 0.0 9.7 0.00 0.00 0.00 60 1021.3
20260904162242 31 280 1.6 9.7 0.00 0.00 0.00 63 1021.3
20260904161741 31 0 0.0 12.9 0.00 0.00 0.00 63 1021.5
20260904161241 31 280 1.6 12.9 0.00 0.00 0.00 61 1021.5
20260904160741 31 0 0.0 6.4 0.00 0.00 0.00 64 1021.5
20260904160400 31 0 0.0 11.3 0.00 0.00 0.00 65 1021.5
20260904160241 31 0 0.0 11.3 0.00 0.00 0.00 65 1021.5
20260904155741 30 280 1.6 11.3 0.00 0.00 0.00 63 1021.5
20260904155241 30 0 0.0 11.3 0.00 0.00 0.00 65 1021.5
20260904154742 30 0 0.0 6.4 0.00 0.00 0.00 65 1021.5
20260904154241 30 0 0.0 9.7 0.00 0.00 0.00 65 1021.5
20260904153741 30 280 3.2 9.7 0.00 0.00 0.00 65 1021.6
20260904153241 30 0 0.0 11.3 0.00 0.00 0.00 64 1021.6
20260904152741 30 0 0.0 11.3 0.00 0.00 0.00 64 1021.5
20260904152241 30 280 1.6 9.7 0.00 0.00 0.00 64 1021.5
20260904151741 30 0 0.0 3.2 0.00 0.00 0.00 65 1021.5
20260904151241 30 0 0.0 4.8 0.00 0.00 0.00 64 1021.6
20260904150741 30 0 0.0 4.8 0.00 0.00 0.00 65 1021.5
20260904150241 30 0 0.0 4.8 0.00 0.00 0.00 63 1021.6
20260904145727 30 0 0.0 3.2 0.00 0.00 0.00 63 1021.6
20260904144906 30 0 0.0 9.7 0.00 0.00 0.00 66 1021.6
20260904144406 30 0 0.0 9.7 0.00 0.00 0.00 65 1021.6
20260904143906 30 0 0.0 4.8 0.00 0.00 0.00 65 1021.6
20260904143405 29 0 0.0 9.7 0.00 0.00 0.00 65 1021.7
20260904142905 29 0 0.0 9.7 0.00 0.00 0.00 65 1021.6
20260904142405 30 0 0.0 3.2 0.00 0.00 0.00 65 1021.6
20260904141604 29 0 0.0 3.2 0.00 0.00 0.00 65 1021.6
20260904141104 29 0 0.0 0.0 0.00 0.00 0.00 66 1021.6
20260904140604 29 0 0.0 0.0 0.00 0.00 0.00 66 1021.6
20260904140231 28 0 0.0 0.0 0.00 0.00 0.00 67 1021.6
20260904140104 28 0 0.0 0.0 0.00 0.00 0.00 67 1021.6
20260904135604 28 0 0.0 0.0 0.00 0.00 0.00 68 1021.5
20260904135437 28 0 0.0 3.2 0.00 0.00 0.00 67 1021.4
20260904135107 28 0 0.0 0.0 0.00 0.00 0.00 68 1021.5
20260904134608 28 0 0.0 3.2 0.00 0.00 0.00 67 1021.4
20260904134601 28 0 0.0 3.2 0.00 0.00 0.00 68 1021.5
20260904134104 28 0 0.0 3.2 0.00 0.00 0.00 68 1021.5
20260904133604 28 0 0.0 1.6 0.00 0.00 0.00 68 1021.5
20260904133252 28 0 0.0 3.2 0.00 0.00 0.00 69 1021.4
20260904133106 28 0 0.0 3.2 0.00 0.00 0.00 68 1021.5
20260904132606 28 0 0.0 3.2 0.00 0.00 0.00 69 1021.4
20260904132449 27 0 0.0 3.2 0.00 0.00 0.00 69 1021.5
20260904132106 28 0 0.0 0.0 0.00 0.00 0.00 69 1021.5
20260904131604 27 0 0.0 3.2 0.00 0.00 0.00 69 1021.5
20260904131104 27 0 0.0 3.2 0.00 0.00 0.00 69 1021.6
20260904130604 27 0 0.0 0.0 0.00 0.00 0.00 69 1021.6
20260904130105 27 0 0.0 4.8 0.00 0.00 0.00 70 1021.6
20260904125604 27 0 0.0 4.8 0.00 0.00 0.00 70 1021.5
20260904125104 27 0 0.0 4.8 0.00 0.00 0.00 70 1021.6
20260904124604 27 0 0.0 4.8 0.00 0.00 0.00 71 1021.6
20260904124104 27 0 0.0 0.0 0.00 0.00 0.00 71 1021.5
20260904123604 26 0 0.0 0.0 0.00 0.00 0.00 72 1021.5
20260904123106 26 0 0.0 0.0 0.00 0.00 0.00 73 1021.5
20260904122604 26 0 0.0 0.0 0.00 0.00 0.00 74 1021.5
20260904122106 26 0 0.0 0.0 0.00 0.00 0.00 75 1021.4
20260904121459 26 0 0.0 6.4 0.00 0.00 0.00 76 1021.4
20260904120958 26 0 0.0 6.4 0.00 0.00 0.00 76 1021.3
20260904120459 25 0 0.0 9.7 0.00 0.00 0.00 77 1021.3
20260904115959 25 0 0.0 9.7 0.00 0.00 0.00 77 1021.3
20260904115500 25 0 0.0 6.4 0.00 0.00 0.00 77 1021.3
20260904115003 25 0 0.0 3.2 0.00 0.00 0.00 78 1021.3
20260904114457 25 0 0.0 6.4 0.00 0.00 0.00 78 1021.2
20260904113958 25 0 0.0 6.4 0.00 0.00 0.00 78 1021.2
20260904113500 25 0 0.0 6.4 0.00 0.00 0.00 78 1021.1
20260904112957 25 0 0.0 9.7 0.00 0.00 0.00 79 1021.1
20260904112457 25 280 1.6 11.3 0.00 0.00 0.00 79 1021.0
20260904111957 25 280 1.6 12.9 0.00 0.00 0.00 80 1021.0
20260904111458 25 280 1.6 12.9 0.00 0.00 0.00 80 1021.0
20260904111000 25 280 4.8 11.3 0.00 0.00 0.00 79 1021.0
20260904110457 25 280 3.2 9.7 0.00 0.00 0.00 78 1021.0
20260904110204 25 0 0.0 6.4 0.00 0.00 0.00 76 1020.9
20260904105958 25 0 0.0 6.4 0.00 0.00 0.00 76 1020.9
20260904105459 25 0 0.0 3.2 0.00 0.00 0.00 76 1020.8
20260904104958 25 0 0.0 4.8 0.00 0.00 0.00 77 1020.7
20260904104458 25 0 0.0 4.8 0.00 0.00 0.00 78 1020.7
20260904103958 25 0 0.0 3.2 0.00 0.00 0.00 79 1020.6
20260904103458 25 0 0.0 11.3 0.00 0.00 0.00 80 1020.6
20260904102958 25 0 0.0 11.3 0.00 0.00 0.00 80 1020.6
20260904102458 25 0 0.0 6.4 0.00 0.00 0.00 81 1020.6
20260904101958 25 0 0.0 6.4 0.00 0.00 0.00 81 1020.5
20260904101107 25 0 0.0 9.7 0.00 0.00 0.00 82 1020.4
20260904100611 25 0 0.0 6.4 0.00 0.00 0.00 82 1020.5
20260904100046 25 0 0.0 9.7 0.00 0.00 0.00 82 1020.5
20260904095509 25 0 0.0 4.8 0.00 0.00 0.00 82 1020.6
20260904094941 25 0 0.0 3.2 0.00 0.00 0.00 80 1020.6
20260904094346 25 0 0.0 4.8 0.00 0.00 0.00 82 1020.6
20260904093445 25 0 0.0 12.9 0.00 0.00 0.00 82 1020.6
20260904092945 25 0 0.0 11.3 0.00 0.00 0.00 81 1020.5
20260904092445 25 0 0.0 6.4 0.00 0.00 0.00 80 1020.4
20260904091945 25 0 0.0 6.4 0.00 0.00 0.00 81 1020.3
20260904091445 25 0 0.0 9.7 0.00 0.00 0.00 81 1020.2
20260904090949 25 0 0.0 9.7 0.00 0.00 0.00 82 1020.2
20260904090445 25 0 0.0 11.3 0.00 0.00 0.00 81 1020.2
20260904085945 25 0 0.0 11.3 0.00 0.00 0.00 80 1020.1
20260904085445 26 0 0.0 4.8 0.00 0.00 0.00 77 1020.0
20260904084945 26 0 0.0 4.8 0.00 0.00 0.00 77 1020.0
20260904084446 25 0 0.0 9.7 0.00 0.00 0.00 78 1020.1
20260904083947 25 0 0.0 9.7 0.00 0.00 0.00 79 1019.9
20260904083445 25 0 0.0 6.4 0.00 0.00 0.00 80 1019.9
20260904082945 25 0 0.0 6.4 0.00 0.00 0.00 81 1019.8
20260904082445 25 0 0.0 6.4 0.00 0.00 0.00 81 1019.7
20260904081945 25 0 0.0 6.4 0.00 0.00 0.00 80 1019.8
20260904081445 25 0 0.0 3.2 0.00 0.00 0.00 80 1019.8
20260904080946 25 0 0.0 3.2 0.00 0.00 0.00 79 1019.8
20260904080445 25 0 0.0 4.8 0.00 0.00 0.00 79 1019.8
20260904075945 25 0 0.0 4.8 0.00 0.00 0.00 79 1019.9
20260904075445 25 0 0.0 6.4 0.00 0.00 0.00 79 1019.8
20260904074945 25 0 0.0 6.4 0.00 0.00 0.00 79 1019.8
20260904074445 26 0 0.0 9.7 0.00 0.00 0.00 78 1019.8
20260904073947 26 0 0.0 12.9 0.00 0.00 0.00 78 1019.9
20260904073445 26 280 4.8 12.9 0.00 0.00 0.00 78 1019.9
20260904072945 26 280 1.6 9.7 0.00 0.00 0.00 77 1019.9
20260904072406 26 280 1.6 9.7 0.00 0.00 0.00 77 1020.0
20260904071904 26 0 0.0 6.4 0.00 0.00 0.00 77 1020.1
20260904071137 26 280 1.6 14.5 0.00 0.00 0.00 77 1020.1
20260904070635 26 280 1.6 14.5 0.00 0.00 0.00 75 1020.1
20260904070304 27 280 3.2 14.5 0.00 0.00 0.00 74 1020.1
20260904070136 27 280 3.2 14.5 0.00 0.00 0.00 74 1020.1
20260904065637 27 0 0.0 9.7 0.00 0.00 0.00 73 1020.2
20260904065135 27 0 0.0 9.7 0.00 0.00 0.00 73 1020.3
20260904064635 27 0 0.0 6.4 0.00 0.00 0.00 73 1020.4
20260904064135 27 0 0.0 4.8 0.00 0.00 0.00 73 1020.5
20260904063635 27 0 0.0 3.2 0.00 0.00 0.00 74 1020.5
20260904063135 27 0 0.0 6.4 0.00 0.00 0.00 74 1020.6
20260904062635 27 0 0.0 6.4 0.00 0.00 0.00 74 1020.7
20260904062136 27 0 0.0 6.4 0.00 0.00 0.00 74 1020.8
20260904061635 27 0 0.0 6.4 0.00 0.00 0.00 74 1020.9
20260904061136 27 0 0.0 9.7 0.00 0.00 0.00 73 1021.0
20260904060635 27 0 0.0 9.7 0.00 0.00 0.00 73 1021.0
20260904060136 27 0 0.0 9.7 0.00 0.00 0.00 73 1021.2
20260904055635 27 0 0.0 9.7 0.00 0.00 0.00 73 1021.2
20260904055135 27 0 0.0 11.3 0.00 0.00 0.00 73 1021.3
20260904054635 27 0 0.0 11.3 0.00 0.00 0.00 73 1021.3
20260904054135 27 280 1.6 11.3 0.00 0.00 0.00 73 1021.4
20260904053635 27 0 0.0 9.7 0.00 0.00 0.00 73 1021.5
20260904053135 27 0 0.0 14.5 0.00 0.00 0.00 73 1021.5
20260904052635 27 0 0.0 14.5 0.00 0.00 0.00 73 1021.6
20260904052135 27 0 0.0 12.9 0.00 0.00 0.00 73 1021.6
20260904051635 27 0 0.0 12.9 0.00 0.00 0.00 73 1021.8
20260904051137 27 0 0.0 14.5 0.00 0.00 0.00 73 1021.8
20260904050639 27 284 1.6 14.5 0.00 0.00 0.00 73 1021.8
20260904050135 27 286 1.6 12.9 0.00 0.00 0.00 73 1021.9
20260904045635 27 0 0.0 8.0 0.00 0.00 0.00 74 1021.9
20260904045135 27 0 0.0 8.0 0.00 0.00 0.00 74 1021.9
20260904044635 27 0 0.0 8.0 0.00 0.00 0.00 74 1021.8
20260904044135 27 0 0.0 8.0 0.00 0.00 0.00 74 1021.8
20260904043635 27 0 0.0 8.0 0.00 0.00 0.00 74 1021.9
20260904043135 27 0 0.0 8.0 0.00 0.00 0.00 74 1021.9
20260904042635 27 0 0.0 6.4 0.00 0.00 0.00 73 1021.8
20260904042135 27 0 0.0 12.9 0.00 0.00 0.00 73 1021.8
20260904041635 27 290 1.6 12.9 0.00 0.00 0.00 73 1021.7
20260904041135 27 0 0.0 11.3 0.00 0.00 0.00 73 1021.7
20260904040635 27 0 0.0 11.3 0.00 0.00 0.00 72 1021.7
20260904040135 27 0 0.0 14.5 0.00 0.00 0.00 72 1021.6
20260904035635 27 292 1.6 14.5 0.00 0.00 0.00 72 1021.6
20260904035135 27 0 0.0 8.0 0.00 0.00 0.00 72 1021.6
20260904034635 27 296 1.6 12.9 0.00 0.00 0.00 71 1021.6
20260904034135 27 296 1.6 12.9 0.00 0.00 0.00 71 1021.6
20260904033635 27 0 0.0 8.0 0.00 0.00 0.00 71 1021.6
20260904033135 27 0 0.0 8.0 0.00 0.00 0.00 70 1021.6
20260904032636 28 0 0.0 12.9 0.00 0.00 0.00 70 1021.6
20260904032135 28 0 0.0 12.9 0.00 0.00 0.00 70 1021.5
20260904031635 28 302 1.6 8.0 0.00 0.00 0.00 69 1021.7
20260904031135 28 0 0.0 8.0 0.00 0.00 0.00 69 1021.7
20260904030635 28 0 0.0 8.0 0.00 0.00 0.00 69 1021.6
20260904030135 28 0 0.0 8.0 0.00 0.00 0.00 68 1021.7
20260904025636 28 0 0.0 4.8 0.00 0.00 0.00 68 1021.7
20260904025135 28 0 0.0 4.8 0.00 0.00 0.00 68 1021.8
20260904024636 28 0 0.0 11.3 0.00 0.00 0.00 67 1021.8
20260904024135 28 0 0.0 11.3 0.00 0.00 0.00 67 1021.8
20260904023635 28 0 0.0 4.8 0.00 0.00 0.00 66 1021.8
20260904023137 28 0 0.0 4.8 0.00 0.00 0.00 65 1021.8
20260904022635 28 0 0.0 8.0 0.00 0.00 0.00 64 1021.9
20260904022135 28 0 0.0 8.0 0.00 0.00 0.00 64 1021.9
20260904021635 28 0 0.0 4.8 0.00 0.00 0.00 64 1022.0
20260904021135 28 0 0.0 4.8 0.00 0.00 0.00 63 1021.9
20260904020635 28 0 0.0 4.8 0.00 0.00 0.00 62 1021.8
20260904020135 28 0 0.0 4.8 0.00 0.00 0.00 61 1021.7
20260904015635 28 0 0.0 0.0 0.00 0.00 0.00 61 1021.7
20260904015135 28 0 0.0 11.3 0.00 0.00 0.00 60 1021.8
20260904014635 28 0 0.0 11.3 0.00 0.00 0.00 59 1021.8
20260904014135 28 0 0.0 4.8 0.00 0.00 0.00 59 1021.8
20260904013635 28 0 0.0 4.8 0.00 0.00 0.00 58 1021.8
20260904013135 28 0 0.0 6.4 0.00 0.00 0.00 58 1021.7
20260904012635 28 0 0.0 6.4 0.00 0.00 0.00 58 1021.6
20260904012102 28 0 0.0 6.4 0.00 0.00 0.00 59 1021.6
20260904011602 28 0 0.0 6.4 0.00 0.00 0.00 61 1021.5
20260904011105 28 0 0.0 3.2 0.00 0.00 0.00 61 1021.5
20260904010602 28 0 0.0 4.8 0.00 0.00 0.00 63 1021.4
20260904005602 28 0 0.0 0.0 0.00 0.00 0.00 62 1021.4
20260904005102 28 0 0.0 4.8 0.00 0.00 0.00 63 1021.4
20260904004602 28 0 0.0 4.8 0.00 0.00 0.00 63 1021.4
20260904004102 28 0 0.0 4.8 0.00 0.00 0.00 63 1021.2
20260904003603 28 0 0.0 6.4 0.00 0.00 0.00 63 1021.1
20260904003102 28 0 0.0 6.4 0.00 0.00 0.00 63 1021.0
20260904002602 28 0 0.0 6.4 0.00 0.00 0.00 62 1020.9
20260904002102 28 0 0.0 3.2 0.00 0.00 0.00 63 1020.8
20260904001602 28 0 0.0 1.6 0.00 0.00 0.00 62 1020.7
20260904001104 28 0 0.0 1.6 0.00 0.00 0.00 63 1020.6
20260904000602 28 0 0.0 6.4 0.00 0.00 0.00 63 1020.6
20260903235602 29 0 0.0 4.8 0.00 0.00 0.00 63 1020.7
20260903235102 29 0 0.0 4.8 0.00 0.00 0.00 63 1020.5
20260903234602 29 0 0.0 1.6 0.00 0.00 0.00 63 1020.5
20260903234102 29 0 0.0 11.3 0.00 0.00 0.00 62 1020.3
20260903233602 29 0 0.0 11.3 0.00 0.00 0.00 62 1020.3
20260903233103 30 0 0.0 8.0 0.00 0.00 0.00 62 1020.4
20260903232602 30 0 0.0 6.4 0.00 0.00 0.00 62 1020.5
20260903232102 30 0 0.0 8.0 0.00 0.00 0.00 62 1020.4
20260903231602 30 0 0.0 8.0 0.00 0.00 0.00 62 1020.4
20260903231102 30 0 0.0 8.0 0.00 0.00 0.00 61 1020.4
20260903230604 30 0 0.0 8.0 0.00 0.00 0.00 61 1020.4
20260903225604 30 0 0.0 3.2 0.00 0.00 0.00 59 1020.2
20260903225102 30 0 0.0 0.0 0.00 0.00 0.00 58 1020.2
20260903224602 31 0 0.0 3.2 0.00 0.00 0.00 59 1020.3
20260903224102 31 0 0.0 3.2 0.00 0.00 0.00 58 1020.3
20260903223602 31 0 0.0 4.8 0.00 0.00 0.00 57 1020.3
20260903223104 31 0 0.0 4.8 0.00 0.00 0.00 57 1020.2
20260903222602 31 0 0.0 4.8 0.00 0.00 0.00 56 1020.2
20260903222103 31 0 0.0 6.4 0.00 0.00 0.00 56 1020.2
20260903221602 31 0 0.0 6.4 0.00 0.00 0.00 57 1020.3
20260903221103 31 302 1.6 6.4 0.00 0.00 0.00 56 1020.3
20260903220602 31 0 0.0 1.6 0.00 0.00 0.00 56 1020.3
20260903215603 31 0 0.0 6.4 0.00 0.00 0.00 55 1020.3
20260903215102 31 0 0.0 4.8 0.00 0.00 0.00 57 1020.4
20260903214602 32 0 0.0 6.4 0.00 0.00 0.00 55 1020.4
20260903214102 32 0 0.0 11.3 0.00 0.00 0.00 56 1020.3
20260903213602 32 0 0.0 11.3 0.00 0.00 0.00 56 1020.4
20260903213102 32 0 0.0 8.0 0.00 0.00 0.00 54 1020.3
20260903212605 32 0 0.0 6.4 0.00 0.00 0.00 56 1020.4
20260903212104 32 0 0.0 6.4 0.00 0.00 0.00 55 1020.5
20260903211602 32 302 1.6 8.0 0.00 0.00 0.00 54 1020.4
20260903211102 33 302 1.6 8.0 0.00 0.00 0.00 54 1020.5
20260903210602 33 0 0.0 8.0 0.00 0.00 0.00 55 1020.6
20260903205602 33 0 0.0 11.3 0.00 0.00 0.00 56 1020.6
20260903205102 32 0 0.0 8.0 0.00 0.00 0.00 53 1020.6
20260903204602 32 302 1.6 12.9 0.00 0.00 0.00 54 1020.7
20260903204102 32 0 0.0 12.9 0.00 0.00 0.00 55 1020.6
20260903203603 33 302 3.2 11.3 0.00 0.00 0.00 53 1020.8
20260903203103 33 0 0.0 14.5 0.00 0.00 0.00 53 1020.8
20260903202602 33 302 3.2 14.5 0.00 0.00 0.00 54 1020.8
20260903202102 33 0 0.0 12.9 0.00 0.00 0.00 54 1020.9
20260903201602 33 307 1.6 12.9 0.00 0.00 0.00 54 1021.0
20260903201104 33 0 0.0 12.9 0.00 0.00 0.00 55 1021.0
20260903200602 33 309 3.2 12.9 0.00 0.00 0.00 52 1021.1
20260903195602 33 0 0.0 8.0 0.00 0.00 0.00 54 1021.2
20260903195102 33 0 0.0 9.7 0.00 0.00 0.00 54 1021.2
20260903194602 33 316 1.6 12.9 0.00 0.00 0.00 53 1021.1
20260903194102 33 317 1.6 12.9 0.00 0.00 0.00 54 1021.2
20260903193602 33 325 1.6 12.9 0.00 0.00 0.00 53 1021.2
20260903193104 33 0 0.0 8.0 0.00 0.00 0.00 53 1021.4
20260903192602 33 327 1.6 8.0 0.00 0.00 0.00 52 1021.4
20260903192104 33 0 0.0 8.0 0.00 0.00 0.00 52 1021.4
20260903191602 33 327 1.6 8.0 0.00 0.00 0.00 52 1021.5
20260903190745 33 328 6.4 16.1 0.00 0.00 0.00 54 1021.5
20260903190245 32 328 4.8 12.9 0.00 0.00 0.00 55 1021.6
20260903185745 32 328 3.2 9.7 0.00 0.00 0.00 55 1021.6
20260903185245 33 328 1.6 9.7 0.00 0.00 0.00 53 1021.7
20260903184745 33 328 1.6 9.7 0.00 0.00 0.00 51 1021.7
20260903184245 33 328 3.2 9.7 0.00 0.00 0.00 53 1021.7
20260903183746 33 328 3.2 14.5 0.00 0.00 0.00 53 1021.9
20260903183245 33 328 6.4 14.5 0.00 0.00 0.00 53 1021.9
20260903182745 33 328 1.6 12.9 0.00 0.00 0.00 55 1022.0
20260903182245 33 328 1.6 12.9 0.00 0.00 0.00 56 1022.0
20260903181713 33 328 1.6 9.7 0.00 0.00 0.00 54 1022.0
20260903181156 32 0 0.0 4.8 0.00 0.00 0.00 57 1022.1
20260903180656 32 0 0.0 8.0 0.00 0.00 0.00 55 1022.2
20260903180157 32 328 3.2 9.7 0.00 0.00 0.00 55 1022.2
20260903175656 32 328 3.2 9.7 0.00 0.00 0.00 57 1022.2
20260903175157 32 328 1.6 8.0 0.00 0.00 0.00 59 1022.3
20260903174656 32 0 0.0 3.2 0.00 0.00 0.00 59 1022.3
20260903174158 32 0 0.0 3.2 0.00 0.00 0.00 60 1022.4
20260903173656 31 0 0.0 3.2 0.00 0.00 0.00 61 1022.5
20260903173155 31 0 0.0 3.2 0.00 0.00 0.00 60 1022.4
20260903172656 31 0 0.0 1.6 0.00 0.00 0.00 61 1022.5
20260903172156 31 0 0.0 3.2 0.00 0.00 0.00 61 1022.6
20260903171656 31 0 0.0 3.2 0.00 0.00 0.00 60 1022.6
20260903171157 31 0 0.0 1.6 0.00 0.00 0.00 62 1022.7
20260903170657 31 0 0.0 1.6 0.00 0.00 0.00 61 1022.7
20260903170201 31 0 0.0 3.2 0.00 0.00 0.00 61 1022.7
20260903165656 31 0 0.0 3.2 0.00 0.00 0.00 62 1022.8
20260903165157 31 0 0.0 3.2 0.00 0.00 0.00 61 1022.9
20260903164656 31 0 0.0 0.0 0.00 0.00 0.00 59 1023.0